User: anonymous   Login
Location: Unspecified
(0.0000°N, 0.0000°E)
Time: 03:03:19
(UTC+00:00)
Language:

VZLUSAT 1 - Orbit

View from above orbital plane
View from above orbital plane
View from above satellite
View from above satellite

Ground track
Ground track

The orbit data is extracted from the following two-line orbital elements,

1 42790U 17036AB  21102.21636359  .00002316  00000-0  92794-4 0  9997
2 42790  97.2615 155.5936 0011579  54.4930 305.7387 15.25956239211381
Epoch (UTC): 12 April 2021 05:11:33
Eccentricity: 0.0011579
inclination: 97.2615°
perigee height: 480 km
apogee height: 496 km
right ascension of ascending node: 155.5936°
argument of perigee: 54.4930°
revolutions per day: 15.25956239
mean anomaly at epoch: 305.7387°
orbit number at epoch: 21138

The dashed part of the orbit path shows where the satellite is in the earth's shadow,  

DLR